sat.trackr.live / text

‹ back to catalog

STARLINK-5258

NORAD 54195 · 2022-141AQ

PAYLOAD ACTIVE UNKNOWN

§ Identity

Operator
Country
US
Launch date
2022-10-28
Launch site
AFWTR
Launch vehicle
Mass (kg)
RCS (m²)

Purposes: comms

External: N2YO · Heavens-Above · Gunter

§ Orbital elements

Epoch: 2026-09-20T11:48:10.386432Z

Period
93.85 min
Inclination
53.1628°
Eccentricity
0.0001250
Mean motion
15.34396714 rev/d
Perigee alt
461.9 km
Apogee alt
463.6 km
Semi-major
6,840.9 km
B*
3.0769e-5
RAAN
187.9297°
Arg perigee
69.5687°
Mean anomaly
290.5450°
Rev number
21,556

§ Raw data

STARLINK-52581 54195U 22141AQ  26263.49178688  .00000663  00000+0  30769-4 0  99972 54195  53.1628 187.9297 0001250  69.5687 290.5450 15.34396714215560

JSON: /api/v1/satellites/54195 · /tle

For live sub-satellite position, see the globe view (requires WebGL).

§ Visibility from observer

Set your observer location to see the next 7 days of passes ≥ 10°. The values pass through the URL so the page stays shareable.

No JS? Fill the form by hand. The geolocation button needs JavaScript.